#timestamp,LO_Frequency,Hit,StdDev 
1606564815.6,286046998.1,N
1606564835.4,286047000.3,N
1606564855.3,286046998.7,N
1606564875.1,286046998.5,N
1606564876.0,286046998.5,N
1606564895.8,286046998.7,N
1606564915.7,286046996.5,N
1606564935.5,286046997.4,N
1606564955.3,286046997.9,N
1606564975.2,286046995.3,Y
1606564995.9,286046996.6,P
1606565015.7,286046996.5,P
1606565035.6,286046996.5,P
1606565055.4,286046999.3,N
1606565075.2,286046999.4,N
1606565095.1,286046998.8,N
1606565096.0,286046998.8,N
1606565115.8,286046998.9,N
1606565135.6,286046999.2,N
1606565155.5,286046997.1,N
1606565175.3,286046997.4,N
1606565195.1,286046997.7,N
1606565215.9,286046997.1,N
1606565235.7,286046997.3,N
1606565255.5,286046996.8,Y
1606565275.4,286046998.5,P
1606565295.2,286046998.5,P
1606565315.0,286047000.3,N
1606565315.9,286047000.3,N
1606565335.8,286047002.6,N
1606565355.6,286046999.7,N
1606565375.4,286047002.1,N
1606565395.3,286047001.8,N
1606565415.1,286047001.5,N
1606565416.0,286047001.5,N
1606565435.8,286047000.4,N
1606565455.7,286047002.1,N
1606565475.5,286047001.8,N
1606565495.3,286047001.6,N
1606565515.2,286047001.8,N
1606565535.9,286047004.4,Y
1606565555.7,286047001.8,P
1606565575.6,286047000.3,N
1606565595.4,286047000.0,N
1606565615.2,286047000.0,N
1606565635.1,286047000.4,N
1606565636.0,286047000.4,N
1606565655.8,286047001.0,N
1606565675.6,286047000.8,N
1606565695.5,286047000.8,N
1606565715.3,286047001.0,N
1606565735.1,286046998.4,Y
1606565755.9,286046998.6,P
1606565775.7,286046998.3,N
1606565795.5,286046998.4,N
1606565815.4,286046998.9,N
1606565835.2,286047001.1,N
1606565855.0,286046998.8,N
1606565855.9,286046998.8,N
1606565875.8,286046999.0,N
1606565895.6,286046999.2,N
1606565915.4,286046999.0,N
1606565935.3,286047001.1,N
1606565955.1,286047001.1,N
1606565956.0,286047001.1,N
1606565975.8,286047001.0,N
1606565995.7,286047001.2,N
1606566015.5,286046998.7,N
1606566035.3,286047001.2,N
1606566055.2,286046998.9,N
1606566075.9,286046999.1,N
1606566095.7,286046999.2,N
1606566115.6,286046998.8,N
1606566135.4,286046999.6,N
1606566155.2,286046997.4,N
1606566175.1,286046997.0,N
1606566176.0,286046997.0,N
1606566195.8,286046998.9,N
1606566215.6,286046997.0,N
1606566235.5,286046997.1,N
1606566255.3,286046999.5,N
1606566275.1,286046999.4,N
1606566295.9,286046999.5,N
1606566315.7,286046996.5,N
1606566335.5,286046997.2,N
1606566355.4,286046995.4,Y
1606566375.2,286046995.1,P
1606566395.0,286046995.3,N
1606566395.9,286046995.3,N
1606566415.8,286046997.0,N
1606566435.6,286046997.6,N
1606566455.4,286046998.0,N
1606566475.3,286046997.8,N
1606566495.1,286046995.1,Y
1606566496.0,286046995.1,P
1606566515.8,286046999.0,N
1606566535.7,286046998.1,N
1606566555.5,286047000.7,N
1606566575.3,286046999.3,N
1606566595.2,286046998.2,N
1606566615.9,286047001.0,N
1606566635.7,286046998.9,N
1606566655.6,286046998.8,N
1606566675.4,286046999.2,N
1606566695.2,286046998.9,N
1606566715.1,286046998.6,N
1606566716.0,286046998.6,N
1606566735.8,286046999.0,N
1606566755.6,286046996.6,N
1606566775.5,286046997.7,N
1606566795.3,286046999.5,N
1606566815.1,286046996.8,N
1606566835.9,286046997.4,N
1606566855.7,286046997.1,N
1606566875.5,286046997.9,N
1606566895.4,286046999.5,N
1606566915.2,286046999.5,N
1606566935.0,286046996.5,N
1606566935.9,286046996.5,N
1606566955.8,286046999.6,N
1606566975.6,286046997.0,N
1606566995.4,286046997.2,N
1606567015.3,286046997.6,N
1606567035.1,286046996.7,N
1606567036.0,286046996.7,N
1606567055.8,286046999.0,N
1606567075.7,286046998.2,N
1606567095.5,286047001.2,N
1606567115.3,286046998.4,N
1606567135.2,286046999.2,N
1606567155.9,286046999.2,N
1606567175.7,286046999.5,N
1606567195.6,286046998.8,N
1606567215.4,286046998.4,N
1606567235.2,286047000.5,N
1606567255.1,286047000.8,N
1606567256.0,286047000.8,N
1606567275.8,286047000.3,N
1606567295.6,286046999.7,N
1606567315.5,286047000.5,N
1606567335.3,286047002.7,N
1606567355.1,286047000.0,N
1606567375.9,286047000.0,N
1606567395.7,286047000.2,N
1606567415.5,286047002.4,N
1606567435.4,286047002.0,N
1606567455.2,286047002.2,N
1606567475.0,286047001.5,N
1606567475.9,286047001.5,N
1606567495.8,286047002.7,N
1606567515.6,286047002.4,N
1606567535.4,286047002.3,N
1606567555.3,286047002.4,N
1606567575.1,286047002.8,N
1606567576.0,286047002.8,N
1606567595.8,286047002.8,N
1606567615.7,286047002.7,N
1606567635.5,286047000.1,N
1606567655.3,286047002.5,N
1606567675.2,286047000.1,N
1606567695.9,286046999.8,N
1606567715.7,286047001.4,N
1606567735.6,286047002.4,N
1606567755.4,286047000.2,N
1606567775.2,286046999.8,N
1606567795.1,286047002.1,N
1606567796.0,286047002.1,N
1606567815.8,286047001.5,N
1606567835.6,286047001.6,N
1606567855.5,286047002.7,N
1606567875.3,286047002.3,N
1606567895.1,286047001.6,N
1606567915.9,286046999.8,N
1606567935.7,286047001.6,N
1606567955.5,286047002.6,N
1606567975.4,286047000.1,N
1606567995.2,286047000.6,N
1606568015.0,286047002.2,N
1606568015.9,286047002.2,N
1606568035.8,286046999.7,N
1606568055.6,286047002.2,N
1606568075.4,286047011.9,Y
1606568095.3,286046999.9,P
1606568115.1,286047000.4,N
1606568116.0,286047000.4,N
1606568135.8,286047000.6,N
1606568155.7,286047001.2,N
1606568175.5,286047001.0,N
1606568195.3,286046999.3,N
1606568215.2,286046999.4,N
1606568235.9,286046998.9,N
1606568255.7,286046998.5,N
1606568275.6,286046999.1,N
1606568295.4,286046998.5,N
1606568315.2,286047000.8,N
1606568335.1,286046998.8,N
1606568336.0,286046998.8,N
1606568355.8,286047000.8,N
1606568375.6,286047001.1,N
1606568395.5,286046999.4,N
